This is the latest recevied weather packets stored in our database for station/object DO1SN-13. If no packets are shown the sender has not sent any weather packets the latest 10 day(s).
| Time | Temp. | Humidity | Pressure | Rain* | Wind** | Luminosity | Snow |
|---|---|---|---|---|---|---|---|
| 1787600088 | 22.22° C | - | 1018.1 hPa | 0 mm | - | - | - |
| 1787599724 | 21.11° C | - | 1018.3 hPa | 0 mm | - | - | - |
| 1787599359 | 21.11° C | - | 1018.4 hPa | 0 mm | - | - | - |
| 1787598995 | 21.11° C | - | 1018.2 hPa | 0 mm | - | - | - |
| 1787598631 | 22.78° C | - | 1018.3 hPa | 0 mm | - | - | - |
| 1787598266 | 22.78° C | - | 1018.2 hPa | 0 mm | - | - | - |
| 1787597902 | 21.11° C | - | 1018.3 hPa | 0 mm | - | - | - |
| 1787597537 | 23.33° C | - | 1018.4 hPa | 0 mm | - | - | - |
| 1787597172 | 22.78° C | - | 1018.5 hPa | 0 mm | - | - | - |
| 1787596808 | 23.89° C | - | 1018.4 hPa | 0 mm | - | - | - |
| 1787596444 | 23.33° C | - | 1018.3 hPa | 0 mm | - | - | - |
| 1787596080 | 22.78° C | - | 1018.2 hPa | 0 mm | - | - | - |
| 1787595715 | 22.22° C | - | 1018.1 hPa | 0 mm | - | - | - |
| 1787595351 | 22.22° C | - | 1018.1 hPa | 0 mm | - | - | - |
| 1787594987 | 23.89° C | - | 1018.2 hPa | 0 mm | - | - | - |
| 1787594623 | 22.78° C | - | 1018 hPa | 0 mm | - | - | - |
| 1787594259 | 22.78° C | - | 1017.9 hPa | 0 mm | - | - | - |
| 1787593894 | 22.78° C | - | 1017.8 hPa | 0 mm | - | - | - |
| 1787593530 | 22.78° C | - | 1017.7 hPa | 0 mm | - | - | - |
| 1787593166 | 22.22° C | - | 1017.5 hPa | 0 mm | - | - | - |
| 1787592802 | 23.33° C | - | 1017.7 hPa | 0 mm | - | - | - |
| 1787592437 | 22.78° C | - | 1018 hPa | 0 mm | - | - | - |
| 1787592073 | 23.33° C | - | 1018.4 hPa | 0 mm | - | - | - |
| 1787591709 | 22.78° C | - | 1018.6 hPa | 0 mm | - | - | - |
| 1787591344 | 23.33° C | - | 1018.7 hPa | 0 mm | - | - | - |
* Rain latest hour (hover to see other rain measurements)
** Current wind speed in m/s (hover to see current wind gust speed)